Flag for U.S.A. Weather past 2 weeks in Flagstaff, Arizona, U.S.A.

Now
66 °F

Sunny.


Feels Like: 66 °F
Forecast: 50 / 70 °F
Wind: 13 mph from Southwest

Location: Flagstaff Pulliam Airport

Current Time: Aug 22, 2014 at 5:43:09 PM

Latest Report: Aug 22, 2014 at 4:57 PM


Visibility: 10 mi

Pressure: 29.97 "Hg

Humidity: 50%

Dew point: 47 °F

Location of FlagstaffLocation

Historic Weather in Flagstaff — Graph

°F

Flagstaff temperature yesterday

Maximum temperature yesterday: 67 °F (at 10:57 AM)
Minimum temperature yesterday: 47 °F (at 4:57 AM)
Average temperature yesterday: 55 °F

Past Weeks' High & Low Weather Summary

 TemperatureHumidityPressure
High83 °F (Aug 10, 11:57 AM)97% (Aug 13, 6:57 AM)30.41 "Hg (Aug 13, 6:57 AM)
Low47 °F (Aug 21, 4:57 AM)16% (Aug 7, 3:57 PM)29.87 "Hg (Aug 19, 3:57 PM)
Average62 °F66%30.03 "Hg
* Reported Aug 7 3:57 PM — Aug 22 3:57 PM, Flagstaff, Weather by CustomWeather, © 2014

Note: Actual official high and low records may vary slightly from our data, if they occured in-between our weather recording intervals... More about our weather records

Advertising

Flagstaff weather history for previous 24 hours

 ConditionsComfort  
Time TempWeatherWind HumidityBarometerVisibility
3:57 PM
Aug 22
65 °FScattered clouds.13 mph54%29.97 "Hg10 mi
2:57 PM64 °FScattered clouds.14 mph56%29.98 "Hg10 mi
1:57 PM66 °FBroken clouds.15 mph50%29.98 "Hg10 mi
12:57 PM64 °FMostly cloudy.9 mph54%30.01 "Hg10 mi
11:57 AM63 °FOvercast.13 mph58%30.02 "Hg10 mi
10:57 AM61 °FMore clouds than sun.9 mph67%30.03 "Hg10 mi
9:57 AM59 °FMore clouds than sun.9 mph75%30.05 "Hg10 mi
8:57 AM56 °FPartly sunny.7 mph81%30.06 "Hg10 mi
7:57 AM55 °FOvercast.No wind80%30.06 "Hg10 mi
6:57 AM52 °FOvercast.No wind93%30.07 "Hg10 mi
5:57 AM52 °FMostly cloudy.5 mph93%30.05 "Hg10 mi
4:57 AM52 °FOvercast.No wind93%30.03 "Hg10 mi
3:57 AM53 °FOvercast.3 mph93%30.04 "Hg10 mi
2:57 AM53 °FLow clouds.No wind93%30.04 "Hg10 mi
1:57 AM53 °FLight rain. Overcast.5 mph93%30.03 "Hg8 mi
12:57 AM53 °FOvercast.3 mph93%30.04 "Hg10 mi
11:57 PM
Aug 21
53 °FMostly cloudy.No wind93%30.03 "Hg10 mi
10:57 PM54 °FOvercast.No wind93%30.02 "Hg10 mi
9:57 PM54 °FOvercast.No wind93%30.03 "Hg10 mi
8:57 PM54 °FOvercast.No wind93%30.04 "Hg10 mi
7:57 PM54 °FMostly cloudy.3 mph93%30.05 "Hg10 mi
6:57 PM55 °FCloudy.3 mph93%30.08 "Hg10 mi
5:57 PM55 °FMostly cloudy.No wind90%30.10 "Hg10 mi
Weather by CustomWeather, © 2014

See weather overviewHow to use our weather pages